Погода на Провинции Бали

Индонезия     8°22′09″S   115°09′57″E
темп.,
°C
ветер,
м/с
пор.,
м/с
влажн.,
%
обл.,
%
осадки,
мм/ч
давл.,
гПа
погр.,
м
23 мая, пн
пн2323:00+18ююв1191100 0.0 101335
02:00+17ю1193100 0.0 101231
05:00+17ю119543 0.0 101227
08:00+21ююв128040 0.0 1012163
11:00+27всв12523 0.0 10111189
14:00+27с115852 0.0 10091351
17:00+22ссв118864 0.3 1011247
20:00+20вюв009734 0.5 101336
24 мая, вт
вт2423:00+18вюв119626 0.1 101444
02:00+18юв119512 0.1 101335
05:00+17вюв119399 0.0 101234
08:00+21в128291 0.0 1013137
11:00+27св234892 0.0 10121231
14:00+28св124980 0.0 10101525
17:00+23в127299 0.3 1011421
20:00+19вюв119598 0.3 101441
25 мая, ср
ср2523:00+18в129598 0.0 101558
02:00+18вюв119189 0.0 101437
05:00+18юв1190100 0.0 101334
08:00+22всв127817 0.0 1014186
11:00+27св125880 0.1 10131374
14:00+24всв017867 2.0 1011727
17:00+23в018538 1.8 1011309
20:00+20ююв119784 2.6 101326
26 мая, чт
чт2623:00+19ю009782 0.4 101324
02:00+19ю1196100 0.4 101128
05:00+19ююв119542 0.3 101125
08:00+22ююв0187100 0.5 1012137
11:00+25сз0079100 2.3 1012787
14:00+22сз1289100 8.1 1010372
17:00+21зсз1293100 5.3 1010262
20:00+19ююз1197100 9.5 101222
27 мая, пт
пт2723:00+19сз1298100 1.0 101367
02:00+19з119898 2.6 101140
05:00+19сз0097100 1.7 101125
08:00+19ююв1198100 5.6 101255
11:00+20зсз0197100 2.4 1012149
14:00+20зюз0195100 4.0 1010239
17:00+20ссз1299100 3.3 1010157
20:00+19ю1198100 14.0 101273